{"data":{"norad_id":60555,"intl_designator":"2024-149CR","name":"UM5-EOSAT","alt_names":[],"object_type":"PAYLOAD","status":"ACTIVE","operator":null,"country":"MA","launch_date":"2024-08-16","launch_site_code":"AFWTR","launch_vehicle":null,"mission":null,"orbit_class":"UNKNOWN","rcs_meters":null,"size_class":null,"mass_kg":null,"dimensions":null,"purposes":[],"wikipedia_slug":null,"has_3d_model":false,"image_url":null,"decayed_at":null,"tle_current":{"epoch":"2026-09-22T17:09:39.045600Z","epoch_age_seconds":97738,"freshness":"FRESH","line1":"1 60555U 24149CR  26265.71503525  .00002070  00000+0  16244-3 0  9998","line2":"2 60555  97.6642 343.3595 0009760 164.8334 195.3186 15.02005897114859","mean_motion":15.02005897,"eccentricity":0.000976,"inclination_deg":97.6642,"raan_deg":343.3595,"arg_perigee_deg":164.8334,"mean_anomaly_deg":195.3186,"bstar":0.00016244,"rev_number":11485,"period_min":95.871794037304,"perigee_km":553.93935582431,"apogee_km":567.4839884323,"semimajor_km":6938.8486721283,"source":"CELESTRAK","updated_at":"2026-09-23T09:00:20.699622Z"}}}